Wind_Speed
15 16 15 15 15 15 14 14 13 12 11 11 11 10 10 11 11 9 5 6 10 11 11 11 11 11 9 6 8 9 8 10 21 22 21 19 19 16 11 14 9 12 7 8 8 5 3
17 17 17 18 18 17 16 15 14 13 13 12 11 10 9 9 10 9 5 3 7 10 11 12 12 12 7 9 7 6 2 15 20 21 20 18 13 14 10 6 11 4 14 9 7 9 4
19 19 19 19 19 20 19 17 16 14 14 14 13 11 10 8 8 8 4 4 5 9 11 12 12 11 8 5 3 5 10 14 17 15 18 15 5 13 5 5 5 5 7 11 12 10 6
20 20 20 20 20 20 20 20 17 16 15 15 14 13 11 9 7 6 4 4 5 9 12 13 12 8 6 11 9 9 12 13 14 12 11 11 10 12 6 3 6 6 6 9 9 8 8
22 22 21 20 21 20 21 20 19 17 16 15 14 13 11 9 7 5 4 2 5 9 12 12 10 6 4 6 8 11 12 14 15 12 10 10 7 8 6 9 7 8 7 10 8 7 7
25 23 22 21 20 20 20 20 19 18 16 15 14 13 11 9 6 4 3 4 7 9 11 9 3 6 8 6 12 13 14 16 12 12 8 8 8 7 9 11 6 12 12 6 8 8 7
24 23 23 22 22 21 21 20 20 18 17 16 14 13 11 9 7 6 9 12 6 4 11 7 4 2 8 8 11 11 17 14 12 14 8 13 9 11 14 15 11 5 5 7 7 7 10
23 24 24 24 23 22 22 21 20 19 18 17 15 13 11 10 9 11 16 8 5 3 4 15 3 3 6 9 6 13 17 12 12 12 10 5 15 14 6 9 12 10 10 10 5 5 3
18 20 22 23 24 22 23 22 22 19 18 17 16 13 11 11 11 15 20 14 5 5 5 6 10 7 5 8 4 17 18 8 12 14 14 11 3 3 10 9 11 13 13 11 6 5 8
23 24 23 23 24 25 24 23 21 19 18 16 15 13 10 10 8 12 17 16 9 7 5 9 7 7 8 7 4 8 13 8 5 13 10 10 4 6 8 12 12 12 11 12 7 7 8
23 23 24 25 25 25 25 22 21 21 18 17 14 11 9 10 7 10 8 11 11 5 5 8 6 8 9 7 14 5 11 4 8 7 6 4 7 10 11 12 10 6 0 8 11 13 12
22 23 24 25 26 26 25 24 23 22 21 15 10 6 7 8 11 11 9 15 11 5 6 6 6 9 10 8 3 7 8 3 3 5 6 0 2 4 0 3 5 9 8 7 5 6 8
22 23 25 26 27 27 23 24 26 25 20 9 3 2 4 8 6 11 15 13 5 7 4 7 7 10 12 8 6 8 12 9 7 7 11 10 8 3 2 5 3 8 10 5 5 5 7
22 24 25 26 28 27 25 24 25 23 15 5 8 6 2 7 9 13 17 5 9 2 5 2 6 12 8 9 3 6 10 7 2 3 2 12 6 9 2 4 4 14 13 5 7 10 7
23 25 27 27 28 28 26 24 23 18 4 8 2 2 3 4 11 15 9 9 4 4 2 8 9 12 6 6 4 6 9 6 3 2 4 6 5 5 6 2 3 7 7 3 5 7 4
22 25 27 28 28 28 28 27 22 14 2 6 0 2 6 5 13 14 5 4 1 4 3 3 7 4 12 12 9 10 10 2 3 4 3 2 3 1 3 1 4 2 3 4 5 5 11
25 26 27 28 27 27 28 28 25 12 4 7 2 3 2 9 12 6 7 3 3 4 3 4 2 3 3 5 6 8 5 4 4 2 4 2 3 5 4 6 5 1 4 3 4 3 5
25 26 28 29 28 27 28 29 27 14 2 8 3 3 3 14 2 1 3 3 1 1 5 3 3 5 4 3 4 4 4 6 5 2 2 3 2 3 4 6 6 4 4 4 4 5 1
27 28 29 30 29 28 28 29 29 15 1 6 3 1 2 11 3 3 4 4 4 1 4 3 2 4 3 4 4 6 6 4 7 4 3 2 1 4 4 3 2 3 4 2 2 1 4
26 27 29 31 32 30 29 29 31 17 1 7 2 3 2 2 3 5 6 4 4 5 3 5 3 2 5 4 5 7 6 4 6 7 8 2 3 3 2 5 3 4 3 5 3 1 2
26 27 28 30 31 32 30 30 30 18 3 3 3 2 1 2 3 5 4 5 6 3 3 2 3 5 2 4 5 6 5 6 7 5 4 3 3 3 5 4 5 4 4 4 1 3 3
26 27 29 30 31 32 31 30 30 26 8 3 3 0 5 6 3 6 0 3 7 5 4 2 6 5 4 5 4 6 8 3 4 4 3 2 3 3 2 4 2 3 3 3 3 3 3
26 28 28 30 31 32 32 31 30 30 20 8 7 6 2 3 2 2 2 5 7 8 7 9 12 13 14 11 16 16 17 11 7 4 4 2 4 3 3 3 2 3 4 2 3 5 4
25 27 28 29 30 30 33 31 29 26 26 15 8 4 2 3 4 3 5 11 9 4 6 8 7 5 6 19 20 19 19 18 12 8 5 6 5 1 3 4 3 4 3 3 3 2 2
25 26 27 28 29 30 30 31 28 23 21 19 15 5 4 3 9 8 8 10 16 18 13 12 8 11 18 7 6 6 3 3 7 7 5 4 3 3 3 5 4 1 2 3 4 2 3
25 25 26 26 28 29 29 30 29 24 16 13 14 8 4 7 4 7 9 9 8 5 6 6 7 8 8 3 2 3 3 4 5 4 3 3 3 1 2 2 3 4 4 2 1 2 3
23 24 25 25 26 27 27 28 28 26 19 12 12 6 5 6 3 2 2 4 4 2 4 7 6 4 3 3 3 2 3 2 4 5 3 3 2 2 4 3 3 3 4 4 2 2 4
24 26 26 26 25 25 27 27 27 26 22 12 9 8 3 5 6 4 4 4 4 4 4 8 5 2 3 3 3 2 2 3 4 3 2 1 1 2 1 3 4 7 5 3 3 3 2
23 26 23 24 23 26 26 26 26 25 19 10 6 4 8 7 7 14 14 10 7 7 7 3 3 5 2 3 2 3 3 2 3 3 2 2 3 2 3 3 6 5 1 4 3 0 5
Wind_Direction
360 355 352 349 343 338 335 331 330 325 321 320 321 322 324 327 336 341 310 231 214 210 208 206 207 201 179 216 248 260 269 222 182 177 183 182 188 201 213 204 184 223 220 218 228 210 248
356 353 348 342 337 333 330 326 322 320 317 314 311 312 310 314 325 337 322 256 212 204 201 199 200 194 184 240 253 267 231 169 177 179 184 185 200 203 237 214 205 194 229 230 221 227 197
355 350 345 340 337 332 328 323 318 315 311 308 304 303 303 306 313 323 317 269 207 199 193 195 193 184 234 237 243 175 151 152 162 173 184 193 222 195 208 196 202 207 242 220 224 217 187
347 344 339 336 333 330 326 325 322 315 309 305 302 300 298 296 299 305 306 257 222 194 188 186 180 176 254 233 215 171 167 163 166 169 178 197 200 213 240 118 175 216 230 222 137 165 155
345 344 339 334 333 335 329 321 321 317 311 306 303 297 293 290 287 292 293 248 204 184 176 171 169 194 234 214 183 174 167 165 165 180 188 191 190 204 195 213 202 201 245 208 145 183 144
344 345 346 344 340 335 332 326 320 314 309 304 301 296 290 282 272 259 243 159 148 155 150 155 221 219 224 195 179 175 168 160 154 153 137 172 189 218 214 209 202 208 223 192 169 151 137
343 345 344 344 343 341 335 327 323 316 308 301 296 293 284 273 252 215 161 128 123 165 193 195 218 265 147 156 154 168 167 158 159 177 183 187 202 214 219 224 255 318 211 191 137 140 165
1 357 348 345 343 340 336 335 326 318 310 300 294 288 279 265 244 215 192 206 236 146 210 222 197 198 157 155 135 166 163 168 173 192 195 173 225 228 238 237 237 237 237 230 168 166 186
346 341 344 344 342 339 338 339 330 322 313 302 293 284 274 260 245 224 215 213 225 215 257 182 209 200 175 165 154 172 173 186 195 199 199 218 89 294 196 208 218 230 234 225 234 155 215
348 352 349 345 340 341 339 336 334 328 318 306 293 280 265 253 243 226 223 223 217 204 250 157 192 190 174 171 122 162 178 189 193 209 209 238 178 152 192 220 217 236 221 244 214 201 230
352 351 350 349 348 344 341 337 335 329 322 310 292 274 250 222 204 181 216 198 195 179 255 125 143 156 165 177 128 161 178 202 190 171 187 183 185 202 219 225 222 258 167 217 218 223 257
354 354 352 351 349 347 344 341 338 333 325 312 287 249 241 228 210 203 191 163 155 214 233 144 137 165 154 166 105 126 171 135 95 167 230 71 86 211 26 101 221 132 132 129 176 215 237
358 356 356 353 350 348 348 345 345 339 332 315 196 207 214 186 201 184 162 150 190 233 139 164 169 172 169 158 124 177 174 173 204 190 213 201 209 135 208 173 165 199 178 180 207 205 241
359 359 353 353 351 350 350 351 349 343 342 121 118 65 191 182 186 173 164 198 231 229 136 94 155 159 172 155 133 156 163 168 123 257 228 194 204 182 138 246 220 202 212 225 225 221 223
3 358 356 355 354 353 349 351 352 348 11 149 96 22 14 224 177 173 195 212 336 52 42 151 154 172 158 165 166 155 193 158 81 352 257 206 145 122 59 344 300 156 220 304 278 260 284
5 3 1 358 357 356 352 349 353 349 225 178 152 278 352 162 165 168 224 234 44 22 330 283 187 233 183 173 170 190 172 53 125 34 313 74 166 50 79 237 77 307 14 188 214 242 237
10 2 1 1 0 1 356 350 351 350 250 207 246 258 342 149 150 180 219 81 109 40 328 323 145 128 82 150 213 176 152 72 9 35 17 327 275 121 186 25 15 213 209 244 295 284 265
9 6 7 4 3 5 3 355 352 351 272 203 242 231 179 151 110 13 140 71 71 32 33 31 53 59 109 125 116 127 133 40 0 341 75 37 1 136 55 91 46 43 19 332 254 231 260
12 10 8 6 7 8 10 2 358 352 240 186 237 134 163 181 200 135 126 91 57 63 36 40 85 41 70 108 119 114 97 35 28 51 51 4 144 145 168 194 147 57 40 45 86 27 233
17 10 9 9 9 8 12 11 5 357 42 190 231 190 87 111 22 152 148 142 121 53 69 60 95 105 125 94 53 128 116 50 42 73 40 22 65 31 47 63 52 120 81 43 24 218 355
15 13 11 10 9 10 12 14 15 7 11 159 36 72 10 140 89 135 119 139 139 121 78 49 90 68 110 121 110 115 109 126 58 32 50 46 91 79 84 60 64 79 44 20 353 49 267
14 15 12 10 10 10 11 13 19 22 32 68 30 43 75 88 76 133 96 129 141 120 352 75 111 84 78 87 31 144 129 130 88 79 73 16 111 107 90 52 72 92 44 47 58 76 116
12 12 12 9 10 9 9 12 17 25 39 52 61 78 360 27 105 248 35 126 129 131 56 87 120 101 88 83 84 82 82 81 97 107 104 111 132 158 122 106 103 230 37 25 81 60 352
11 11 11 7 8 8 8 10 13 20 30 36 31 36 305 84 61 63 108 111 108 73 121 112 97 90 109 114 98 86 84 77 81 73 39 142 125 70 131 145 233 85 53 29 23 88 80
8 9 8 6 5 5 6 6 8 13 21 26 27 40 13 100 109 108 112 108 101 93 92 88 67 108 141 137 118 128 122 131 62 57 62 114 148 118 185 205 113 172 49 26 24 99 100
5 3 3 4 1 1 3 1 2 3 10 18 23 41 50 131 83 122 125 130 128 109 105 92 89 126 156 197 141 165 155 113 141 114 63 100 59 264 161 238 272 63 101 81 38 226 128
4 1 2 3 359 359 358 357 357 356 359 5 7 23 63 99 81 136 116 158 131 108 98 133 142 147 194 186 143 151 131 354 141 135 133 124 67 207 200 250 125 116 130 140 238 72 137
5 360 357 359 357 356 353 351 354 352 353 355 346 1 100 99 65 59 100 95 114 161 156 142 142 171 175 171 176 133 110 76 93 57 63 5 210 119 129 216 231 156 143 233 98 156 293
350 354 353 351 358 352 352 347 349 346 347 350 351 42 103 115 110 102 91 90 103 123 113 126 71 106 71 121 94 111 113 108 156 132 68 186 4 60 6 53 113 141 89 194 176 246 321
Height
1495 1493 1490 1487 1484 1482 1478 1476 1473 1471 1469 1467 1465 1462 1460 1460 1457 1455 1453 1452 1453 1455 1457 1459 1462 1463 1465 1468 1464 1460 1460 1461 1465 1470 1476 1478 1482 1484 1481 1480 1481 1485 1482 1486 1489 1491 1493
1494 1491 1488 1486 1483 1480 1476 1474 1471 1469 1467 1465 1463 1461 1459 1458 1456 1454 1452 1451 1451 1453 1455 1458 1460 1462 1465 1465 1460 1459 1458 1459 1464 1470 1475 1478 1480 1482 1480 1478 1480 1478 1481 1483 1486 1488 1492
1493 1490 1486 1483 1481 1478 1475 1471 1469 1466 1465 1463 1461 1459 1457 1455 1454 1453 1451 1451 1451 1452 1454 1456 1459 1461 1464 1462 1459 1459 1459 1462 1466 1472 1475 1478 1480 1482 1479 1478 1480 1481 1482 1480 1481 1485 1489
1492 1488 1484 1481 1478 1475 1472 1469 1465 1463 1461 1460 1458 1456 1454 1453 1452 1451 1450 1450 1450 1451 1453 1456 1458 1461 1460 1457 1459 1459 1460 1463 1468 1471 1475 1478 1479 1481 1479 1479 1480 1479 1479 1476 1476 1483 1487
1490 1486 1481 1478 1475 1472 1469 1465 1462 1460 1458 1456 1454 1452 1451 1450 1449 1449 1449 1449 1450 1451 1453 1455 1459 1461 1456 1454 1457 1459 1462 1464 1469 1471 1474 1477 1480 1479 1480 1477 1475 1473 1465 1467 1478 1479 1483
1489 1484 1479 1476 1472 1469 1466 1462 1459 1456 1454 1452 1450 1449 1448 1447 1447 1447 1448 1449 1450 1452 1454 1456 1458 1463 1455 1454 1454 1458 1461 1465 1468 1471 1475 1477 1478 1476 1475 1473 1468 1462 1469 1464 1465 1479 1478
1487 1482 1478 1474 1470 1467 1463 1459 1455 1453 1450 1448 1447 1446 1445 1444 1445 1446 1448 1449 1455 1457 1453 1450 1450 1450 1450 1451 1454 1458 1460 1464 1467 1470 1469 1473 1475 1472 1467 1466 1459 1462 1459 1461 1465 1475 1475
1486 1483 1479 1473 1469 1465 1461 1456 1452 1449 1447 1445 1443 1442 1442 1442 1442 1444 1445 1447 1446 1447 1446 1447 1448 1450 1450 1451 1454 1457 1460 1463 1465 1465 1465 1474 1470 1463 1462 1462 1465 1469 1468 1466 1464 1473 1479
1486 1482 1478 1473 1468 1463 1459 1454 1450 1446 1443 1441 1439 1438 1438 1438 1439 1441 1441 1443 1444 1445 1443 1445 1446 1448 1449 1451 1451 1455 1459 1460 1460 1461 1465 1461 1460 1463 1464 1467 1470 1468 1467 1463 1467 1476 1478
1485 1481 1476 1471 1467 1461 1456 1451 1447 1442 1439 1437 1435 1434 1435 1436 1439 1437 1437 1440 1442 1445 1437 1439 1443 1444 1447 1449 1452 1455 1458 1460 1461 1460 1462 1462 1459 1464 1467 1465 1465 1466 1460 1465 1468 1476 1474
1485 1480 1475 1470 1466 1460 1454 1449 1444 1440 1435 1433 1431 1430 1431 1433 1433 1434 1436 1437 1441 1446 1440 1437 1441 1443 1444 1447 1450 1455 1456 1459 1456 1459 1462 1459 1463 1466 1465 1461 1461 1462 1465 1466 1469 1472 1468
1485 1480 1475 1470 1465 1458 1452 1447 1442 1437 1432 1428 1428 1428 1429 1429 1431 1432 1434 1437 1442 1442 1438 1435 1438 1440 1443 1446 1449 1453 1456 1459 1459 1459 1461 1458 1463 1463 1459 1464 1464 1467 1467 1469 1471 1469 1479
1486 1480 1474 1469 1463 1456 1450 1445 1440 1434 1429 1426 1426 1427 1427 1428 1432 1432 1434 1439 1439 1428 1426 1433 1433 1437 1437 1444 1449 1449 1452 1457 1456 1462 1459 1457 1460 1464 1465 1464 1468 1468 1466 1470 1477 1480 1467
1486 1480 1475 1469 1462 1455 1448 1442 1437 1432 1428 1426 1427 1427 1428 1428 1429 1432 1435 1438 1428 1414 1420 1433 1433 1435 1439 1444 1450 1452 1453 1457 1462 1460 1446 1453 1464 1462 1466 1461 1459 1464 1460 1457 1462 1457 1449
1485 1480 1475 1468 1461 1455 1449 1442 1436 1432 1429 1429 1429 1429 1428 1428 1429 1432 1437 1430 1418 1424 1433 1432 1435 1435 1440 1444 1446 1449 1448 1450 1462 1464 1455 1450 1454 1466 1468 1467 1466 1461 1468 1459 1460 1450 1458
1486 1480 1474 1468 1461 1454 1449 1442 1436 1432 1430 1430 1430 1430 1428 1427 1429 1433 1434 1427 1436 1443 1441 1438 1425 1432 1429 1438 1443 1444 1452 1466 1466 1469 1467 1458 1455 1465 1468 1468 1468 1466 1466 1466 1463 1465 1459
1486 1481 1474 1467 1460 1454 1448 1442 1435 1431 1429 1430 1430 1430 1429 1429 1432 1434 1429 1434 1443 1446 1445 1440 1433 1436 1430 1440 1437 1442 1449 1473 1472 1470 1468 1467 1463 1468 1468 1478 1474 1467 1464 1465 1465 1459 1454
1487 1481 1475 1468 1461 1455 1448 1442 1435 1430 1428 1430 1431 1428 1430 1431 1435 1434 1432 1442 1447 1448 1447 1446 1444 1442 1440 1447 1449 1454 1460 1470 1476 1475 1471 1475 1470 1460 1476 1490 1489 1488 1486 1482 1468 1459 1467
1488 1482 1476 1469 1462 1456 1449 1443 1434 1429 1428 1429 1430 1429 1430 1431 1427 1436 1444 1447 1450 1448 1451 1449 1450 1450 1452 1456 1458 1463 1471 1481 1478 1477 1479 1478 1475 1472 1479 1488 1490 1494 1501 1498 1495 1495 1481
1489 1483 1477 1471 1464 1457 1450 1444 1436 1430 1427 1429 1430 1427 1431 1431 1432 1430 1438 1444 1450 1452 1453 1453 1454 1454 1454 1459 1459 1468 1475 1482 1482 1481 1482 1481 1483 1485 1472 1490 1493 1498 1505 1506 1503 1498 1491
1492 1486 1480 1474 1467 1460 1453 1447 1439 1432 1429 1430 1429 1433 1433 1426 1433 1434 1436 1442 1446 1450 1454 1454 1455 1455 1454 1459 1463 1470 1477 1482 1485 1485 1485 1485 1489 1493 1496 1498 1501 1508 1510 1512 1510 1526 1514
1493 1488 1483 1476 1469 1463 1456 1451 1444 1435 1430 1431 1433 1434 1437 1440 1440 1437 1440 1444 1446 1455 1455 1454 1454 1458 1457 1462 1465 1469 1473 1475 1480 1487 1488 1491 1495 1497 1503 1504 1504 1513 1521 1521 1523 1532 1537
1495 1489 1485 1479 1473 1467 1460 1454 1447 1441 1435 1435 1436 1437 1437 1443 1440 1438 1445 1445 1448 1453 1461 1457 1458 1460 1465 1473 1474 1476 1478 1482 1485 1487 1490 1492 1497 1500 1496 1507 1507 1511 1533 1528 1533 1539 1542
1498 1492 1487 1482 1476 1470 1465 1458 1453 1448 1445 1443 1441 1440 1438 1443 1443 1446 1449 1449 1451 1453 1455 1462 1462 1462 1474 1475 1478 1482 1484 1488 1490 1493 1494 1494 1497 1501 1507 1507 1507 1545 1545 1545 1542 1547 1550
1499 1493 1488 1484 1479 1473 1468 1463 1458 1453 1450 1447 1444 1443 1443 1445 1448 1452 1453 1454 1455 1457 1461 1464 1468 1470 1473 1476 1476 1483 1486 1489 1500 1501 1500 1499 1498 1511 1506 1501 1535 1544 1547 1548 1547 1546 1555
1499 1494 1489 1485 1481 1475 1471 1466 1461 1457 1453 1450 1448 1446 1447 1447 1454 1455 1456 1456 1455 1458 1464 1470 1473 1474 1476 1474 1474 1477 1475 1480 1495 1503 1504 1503 1502 1499 1508 1501 1500 1539 1550 1553 1553 1536 1556
1499 1495 1489 1485 1481 1477 1473 1468 1464 1459 1455 1453 1450 1448 1448 1451 1458 1459 1456 1458 1460 1461 1463 1470 1474 1477 1477 1472 1472 1477 1481 1487 1487 1493 1506 1503 1506 1503 1499 1501 1536 1550 1552 1554 1540 1548 1557
1500 1496 1491 1485 1482 1478 1473 1469 1464 1460 1457 1454 1453 1449 1450 1452 1458 1459 1459 1461 1462 1462 1462 1471 1474 1476 1475 1473 1473 1479 1479 1496 1506 1521 1523 1511 1507 1505 1517 1512 1516 1550 1553 1549 1554 1556 1556
1501 1496 1492 1487 1482 1478 1473 1468 1464 1461 1458 1455 1456 1453 1451 1452 1460 1461 1462 1463 1464 1465 1468 1471 1471 1471 1474 1473 1478 1485 1494 1500 1507 1506 1527 1521 1534 1522 1534 1534 1547 1549 1550 1550 1552 1554 1554